Location: Carrizalito
(10.3833°N, 67.0217°W)
Time: 22:27:28
(UTC+00:00)

Meteor 1-11 Rocket - Pass Details

Date: 04 July 2022
Orbit: 830 x 916 km, 81.2° (Epoch: 16 August)

Event Time Altitude Azimuth Distance (km) Brightness Sun altitude
Exits shadow 09:06:40 19° 219° (SW) 2,037 5.1 -15.2°
Maximum altitude 09:10:25 38° 276° (W) 1,352 4.4 -14.4°
Drops below altitude 10° 09:15:53 10° 344° (NNW) 2,594 6.4 -13.1°
Sets 09:18:32 0° 352° (N) 3,529 7.2 -12.6°
